Simultaneous Nadir Overpasses (SNOs) Predictions

Prediction of SNOs between AQUA and METOP-A Satellite Orbit:

Table of predicted SNOs for the next 14.0 days since TLE Epoch: 3/9/2012
Index Date (AQUA) Time (AQUA) AQUA Lat,Lon Date (METOP-A) Time (METOP-A) METOP-A Lat,Lon Distance(km) Time Diff (sec)
1 03/11/2012 23:26:43 -73.76, 2.62 03/11/2012 23:25:44 -73.75, 2.61 1.11 59
2 03/12/2012 00:16:12 73.84, 170.07 03/12/2012 00:16:22 73.82, 170.12 2.53 10
3 03/12/2012 01:05:46 -74.27, -23.27 03/12/2012 01:06:55 -74.27, -21.45 54.98 69
4 03/14/2012 19:00:55 -73.77, 69.05 03/14/2012 19:00:06 -73.77, 69.07 0.77 49
5 03/14/2012 19:50:24 73.86,-123.51 03/14/2012 19:50:44 73.84,-123.41 3.29 20
6 03/17/2012 14:35:05 -73.77, 135.51 03/17/2012 14:34:27 -73.79, 135.53 1.94 38
7 03/17/2012 15:24:34 73.86, -57.05 03/17/2012 15:25:05 73.86, -56.96 2.83 31
8 03/20/2012 10:09:16 -73.80,-158.10 03/20/2012 10:08:49 -73.80,-158.03 2.32 27
9 03/20/2012 10:58:44 73.85, 9.44 03/20/2012 10:59:27 73.87, 9.48 3.14 43
10 03/23/2012 04:53:49 73.24, 101.92 03/23/2012 04:52:42 73.16, 99.59 75.51 67
11 03/23/2012 05:43:26 -73.83, -91.68 03/23/2012 05:43:11 -73.81, -91.60 3.38 15
12 03/23/2012 06:32:54 73.87, 75.85 03/23/2012 06:33:49 73.88, 75.92 2.46 55




NCC Satellite Simultaneous Nadir Overpasses (SNOs) Prediction Service
